This is the latest recevied weather packets stored in our database for station/object DG8GAA-11. If no packets are shown the sender has not sent any weather packets the latest 10 day(s).
| Time | Temp. | Humidity | Pressure | Rain* | Wind** | Luminosity | Snow |
|---|---|---|---|---|---|---|---|
| 1777847122 | 21.67° C | 37% | 1005.5 hPa | - | - | - | - |
| 1777846552 | 21.67° C | 36% | 1005.4 hPa | - | - | - | - |
| 1777846513 | 21.67° C | 36% | 1005.5 hPa | - | - | - | - |
| 1777845575 | 22.22° C | 36% | 1005.3 hPa | - | - | - | - |
| 1777843769 | 22.22° C | 35% | 1005.3 hPa | - | - | - | - |
| 1777842937 | 22.78° C | 35% | 1005.2 hPa | - | - | - | - |
| 1777841060 | 22.78° C | 35% | 1004.6 hPa | - | - | - | - |
| 1777840190 | 23.33° C | 34% | 1004.5 hPa | - | - | - | - |
| 1777839336 | 23.33° C | 35% | 1004.4 hPa | - | - | - | - |
| 1777839254 | 23.33° C | 35% | 1004.3 hPa | - | - | - | - |
| 1777838401 | 23.89° C | 36% | 1004.1 hPa | - | - | - | - |
| 1777838386 | 23.89° C | 35% | 1004 hPa | - | - | - | - |
| 1777838351 | 23.89° C | 35% | 1004 hPa | - | - | - | - |
| 1777837482 | 23.89° C | 33% | 1003.8 hPa | - | - | - | - |
| 1777836545 | 24.44° C | 32% | 1003.6 hPa | - | - | - | - |
| 1777835642 | 24.44° C | 32% | 1003.3 hPa | - | - | - | - |
| 1777833115 | 25° C | 28% | 1003.2 hPa | - | - | - | - |
| 1777832933 | 25° C | 28% | 1003.2 hPa | - | - | - | - |
| 1777832499 | 25.56° C | 28% | 1003.1 hPa | - | - | - | - |
| 1777832124 | 25.56° C | 28% | 1003.1 hPa | - | - | - | - |
| 1777832030 | 25.56° C | 28% | 1003 hPa | - | - | - | - |
| 1777830027 | 26.67° C | 26% | 1003 hPa | - | - | - | - |
| 1777829357 | 26.67° C | 24% | 1002.9 hPa | - | - | - | - |
| 1777829321 | 26.67° C | 25% | 1003 hPa | - | - | - | - |
| 1777828508 | 26.67° C | 25% | 1002.9 hPa | - | - | - | - |
* Rain since midnight (hover to see other rain measurements)
** Current wind speed in m/s (hover to see current wind gust speed)